Time,TemperatureF,DewpointF,PressureIn,WindDirection,WindDirectionDegrees,WindSpeedMPH,WindSpeedGustMPH,Humidity,HourlyPrecipIn,Conditions,Clouds,dailyrainin,SoftwareType,DateUTC
2013-03-02 00:08:00,54.3,43.2,29.82,South,180,6.3,-999.0,66,-99.99,,,0.00,Acu-Link.com,2013-03-02 05:08:00,
2013-03-02 00:24:00,54.3,43.2,29.83,WSW,247,4.2,-999.0,66,-99.99,,,0.00,Acu-Link.com,2013-03-02 05:24:00,
2013-03-02 00:39:00,54.1,43.0,29.83,NNW,337,2.7,-999.0,66,-99.99,,,0.00,Acu-Link.com,2013-03-02 05:39:00,
2013-03-02 00:54:00,54.0,42.9,29.83,NNE,22,3.2,-999.0,66,-99.99,,,0.00,Acu-Link.com,2013-03-02 05:54:00,
2013-03-02 01:09:00,54.0,42.5,29.83,NNW,337,4.7,-999.0,65,-99.99,,,0.00,Acu-Link.com,2013-03-02 06:09:00,
2013-03-02 01:25:00,53.6,42.5,29.83,NNW,337,4.7,-999.0,66,-99.99,,,0.00,Acu-Link.com,2013-03-02 06:25:00,
2013-03-02 01:40:00,53.4,42.3,29.83,SE,135,5.3,-999.0,66,-99.99,,,0.00,Acu-Link.com,2013-03-02 06:40:00,
2013-03-02 01:55:00,53.2,42.5,29.83,ESE,112,1.7,-999.0,67,-99.99,,,0.00,Acu-Link.com,2013-03-02 06:55:00,
2013-03-02 02:10:00,52.2,42.0,29.84,West,270,3.2,-999.0,68,-99.99,,,0.00,Acu-Link.com,2013-03-02 07:10:00,
2013-03-02 02:26:00,51.6,39.0,29.84,ENE,67,2.2,-999.0,62,-99.99,,,0.00,Acu-Link.com,2013-03-02 07:26:00,
2013-03-02 02:41:00,51.1,37.7,29.85,WNW,292,2.7,-999.0,60,-99.99,,,0.00,Acu-Link.com,2013-03-02 07:41:00,
2013-03-02 02:56:00,50.5,37.1,29.84,North,0,2.2,-999.0,60,-99.99,,,0.00,Acu-Link.com,2013-03-02 07:56:00,
2013-03-02 03:12:00,50.2,37.3,29.85,NNW,337,2.2,-999.0,61,-99.99,,,0.00,Acu-Link.com,2013-03-02 08:12:00,
2013-03-02 03:27:00,49.8,36.9,29.84,South,180,1.7,-999.0,61,-99.99,,,0.00,Acu-Link.com,2013-03-02 08:27:00,
2013-03-02 03:42:00,49.5,37.0,29.84,WSW,247,3.7,-999.0,62,-99.99,,,0.00,Acu-Link.com,2013-03-02 08:42:00,
2013-03-02 03:58:00,49.1,36.2,29.84,West,270,2.2,-999.0,61,-99.99,,,0.00,Acu-Link.com,2013-03-02 08:58:00,
2013-03-02 04:19:00,48.9,36.1,29.84,ESE,112,1.7,-999.0,61,-99.99,,,0.00,Acu-Link.com,2013-03-02 09:19:00,
2013-03-02 04:34:00,48.4,36.0,29.85,NW,315,1.7,-999.0,62,-99.99,,,0.00,Acu-Link.com,2013-03-02 09:34:00,
2013-03-02 04:49:00,48.2,35.8,29.85,ENE,67,3.2,-999.0,62,-99.99,,,0.00,Acu-Link.com,2013-03-02 09:49:00,
2013-03-02 05:04:00,48.2,35.4,29.85,SSE,157,2.7,-999.0,61,-99.99,,,0.00,Acu-Link.com,2013-03-02 10:04:00,
2013-03-02 05:19:00,47.8,34.6,29.84,NNE,22,1.7,-999.0,60,-99.99,,,0.00,Acu-Link.com,2013-03-02 10:19:00,
2013-03-02 05:35:00,48.0,34.8,29.84,ENE,67,1.7,-999.0,60,-99.99,,,0.00,Acu-Link.com,2013-03-02 10:35:00,
2013-03-02 05:50:00,47.8,34.6,29.83,NW,315,0.0,-999.0,60,-99.99,,,0.00,Acu-Link.com,2013-03-02 10:50:00,
2013-03-02 06:05:00,47.5,34.3,29.83,ESE,112,1.1,-999.0,60,-99.99,,,0.00,Acu-Link.com,2013-03-02 11:05:00,
2013-03-02 06:21:00,45.9,34.0,29.84,NNW,337,2.7,-999.0,63,-99.99,,,0.00,Acu-Link.com,2013-03-02 11:21:00,
2013-03-02 06:36:00,46.4,34.5,29.84,WNW,292,0.0,-999.0,63,-99.99,,,0.00,Acu-Link.com,2013-03-02 11:36:00,
2013-03-02 06:52:00,45.7,34.2,29.84,NNW,337,0.0,-999.0,64,-99.99,,,0.00,Acu-Link.com,2013-03-02 11:52:00,
2013-03-02 07:07:00,44.6,34.3,29.84,ESE,112,0.0,-999.0,67,-99.99,,,0.00,Acu-Link.com,2013-03-02 12:07:00,
2013-03-02 07:22:00,44.8,34.9,29.84,ESE,112,0.0,-999.0,68,-99.99,,,0.00,Acu-Link.com,2013-03-02 12:22:00,
2013-03-02 07:38:00,45.0,35.5,29.85,ESE,112,0.0,-999.0,69,-99.99,,,0.00,Acu-Link.com,2013-03-02 12:38:00,
2013-03-02 07:53:00,49.8,37.3,29.85,WNW,292,0.0,-999.0,62,-99.99,,,0.00,Acu-Link.com,2013-03-02 12:53:00,
2013-03-02 08:08:00,55.4,38.1,29.86,ESE,112,1.7,-999.0,52,-99.99,,,0.00,Acu-Link.com,2013-03-02 13:08:00,
2013-03-02 08:23:00,52.9,35.8,29.86,South,180,2.7,-999.0,52,-99.99,,,0.00,Acu-Link.com,2013-03-02 13:23:00,
2013-03-02 08:38:00,54.9,36.1,29.87,SE,135,2.2,-999.0,49,-99.99,,,0.00,Acu-Link.com,2013-03-02 13:38:00,
2013-03-02 08:53:00,56.3,35.8,29.87,NW,315,1.7,-999.0,46,-99.99,,,0.00,Acu-Link.com,2013-03-02 13:53:00,
2013-03-02 09:08:00,58.5,37.8,29.87,SSE,157,2.2,-999.0,46,-99.99,,,0.00,Acu-Link.com,2013-03-02 14:08:00,
2013-03-02 09:24:00,58.1,38.5,29.87,North,0,1.1,-999.0,48,-99.99,,,0.00,Acu-Link.com,2013-03-02 14:24:00,
2013-03-02 09:39:00,59.2,39.0,29.87,SSW,202,1.7,-999.0,47,-99.99,,,0.00,Acu-Link.com,2013-03-02 14:39:00,
2013-03-02 09:54:00,58.1,40.1,29.86,NNE,22,1.1,-999.0,51,-99.99,,,0.00,Acu-Link.com,2013-03-02 14:54:00,
2013-03-02 10:10:00,57.2,39.2,29.86,WSW,247,2.7,-999.0,51,-99.99,,,0.00,Acu-Link.com,2013-03-02 15:10:00,
2013-03-02 10:25:00,60.3,41.1,29.87,NNW,337,3.2,-999.0,49,-99.99,,,0.00,Acu-Link.com,2013-03-02 15:25:00,
2013-03-02 10:40:00,61.5,42.2,29.87,NNE,22,2.7,-999.0,49,-99.99,,,0.00,Acu-Link.com,2013-03-02 15:40:00,
2013-03-02 10:55:00,61.5,41.1,29.87,West,270,4.7,-999.0,47,-99.99,,,0.00,Acu-Link.com,2013-03-02 15:55:00,
2013-03-02 11:10:00,59.5,40.8,29.88,WSW,247,5.8,-999.0,50,-99.99,,,0.00,Acu-Link.com,2013-03-02 16:10:00,
2013-03-02 11:26:00,60.1,41.4,29.89,ESE,112,2.7,-999.0,50,-99.99,,,0.00,Acu-Link.com,2013-03-02 16:26:00,
2013-03-02 11:41:00,60.4,41.7,29.89,WNW,292,4.2,-999.0,50,-99.99,,,0.00,Acu-Link.com,2013-03-02 16:41:00,
2013-03-02 11:56:00,59.7,41.0,29.88,SSW,202,2.7,-999.0,50,-99.99,,,0.00,Acu-Link.com,2013-03-02 16:56:00,
2013-03-02 12:11:00,61.7,41.8,29.88,NNE,22,4.7,-999.0,48,-99.99,,,0.00,Acu-Link.com,2013-03-02 17:11:00,
2013-03-02 12:27:00,59.7,41.5,29.88,South,180,7.8,-999.0,51,-99.99,,,0.00,Acu-Link.com,2013-03-02 17:27:00,
2013-03-02 12:42:00,59.7,42.0,29.88,WSW,247,7.3,-999.0,52,-99.99,,,0.00,Acu-Link.com,2013-03-02 17:42:00,
2013-03-02 12:57:00,60.6,41.9,29.86,SW,225,5.8,-999.0,50,-99.99,,,0.00,Acu-Link.com,2013-03-02 17:57:00,
2013-03-02 13:12:00,60.6,40.8,29.85,ESE,112,4.2,-999.0,48,-99.99,,,0.00,Acu-Link.com,2013-03-02 18:12:00,
2013-03-02 13:28:00,63.5,40.6,29.84,SE,135,2.2,-999.0,43,-99.99,,,0.00,Acu-Link.com,2013-03-02 18:28:00,
2013-03-02 13:43:00,61.2,39.1,29.85,WNW,292,4.2,-999.0,44,-99.99,,,0.00,Acu-Link.com,2013-03-02 18:43:00,
2013-03-02 13:58:00,61.3,38.6,29.85,South,180,7.3,-999.0,43,-99.99,,,0.00,Acu-Link.com,2013-03-02 18:58:00,
2013-03-02 14:13:00,61.0,39.5,29.85,ESE,112,5.3,-999.0,45,-99.99,,,0.00,Acu-Link.com,2013-03-02 19:13:00,
2013-03-02 14:29:00,61.0,38.3,29.85,NNW,337,7.3,-999.0,43,-99.99,,,0.00,Acu-Link.com,2013-03-02 19:29:00,
2013-03-02 14:44:00,61.5,38.2,29.85,WNW,292,4.7,-999.0,42,-99.99,,,0.00,Acu-Link.com,2013-03-02 19:44:00,
2013-03-02 14:59:00,60.1,38.1,29.84,NNE,22,6.3,-999.0,44,-99.99,,,0.00,Acu-Link.com,2013-03-02 19:59:00,
2013-03-02 15:14:00,59.9,37.9,29.83,NNW,337,6.3,-999.0,44,-99.99,,,0.00,Acu-Link.com,2013-03-02 20:14:00,
2013-03-02 15:29:00,58.3,37.1,29.82,ESE,112,7.3,-999.0,45,-99.99,,,0.00,Acu-Link.com,2013-03-02 20:29:00,
2013-03-02 15:45:00,59.4,37.5,29.81,South,180,8.3,-999.0,44,-99.99,,,0.00,Acu-Link.com,2013-03-02 20:45:00,
2013-03-02 16:00:00,59.9,37.4,29.80,NNW,337,5.8,-999.0,43,-99.99,,,0.00,Acu-Link.com,2013-03-02 21:00:00,
2013-03-02 16:15:00,59.4,37.5,29.79,SSW,202,14.0,-999.0,44,-99.99,,,0.00,Acu-Link.com,2013-03-02 21:15:00,
2013-03-02 16:30:00,58.6,37.9,29.80,WSW,247,8.3,-999.0,46,-99.99,,,0.00,Acu-Link.com,2013-03-02 21:30:00,
2013-03-02 16:45:00,59.0,38.3,29.80,ENE,67,9.4,-999.0,46,-99.99,,,0.00,Acu-Link.com,2013-03-02 21:45:00,
2013-03-02 17:00:00,58.1,37.4,29.80,South,180,6.3,-999.0,46,-99.99,,,0.00,Acu-Link.com,2013-03-02 22:00:00,
2013-03-02 17:16:00,57.4,38.4,29.80,NNE,22,4.2,-999.0,49,-99.99,,,0.00,Acu-Link.com,2013-03-02 22:16:00,
2013-03-02 17:31:00,56.8,37.8,29.79,ESE,112,5.8,-999.0,49,-99.99,,,0.00,Acu-Link.com,2013-03-02 22:31:00,
2013-03-02 17:46:00,55.8,38.4,29.80,North,0,4.2,-999.0,52,-99.99,,,0.00,Acu-Link.com,2013-03-02 22:46:00,
2013-03-02 18:01:00,54.7,38.4,29.80,NNW,337,5.8,-999.0,54,-99.99,,,0.00,Acu-Link.com,2013-03-02 23:01:00,
2013-03-02 18:17:00,53.6,38.3,29.81,WSW,247,4.7,-999.0,56,-99.99,,,0.00,Acu-Link.com,2013-03-02 23:17:00,
2013-03-02 18:32:00,53.4,39.4,29.81,SW,225,1.7,-999.0,59,-99.99,,,0.00,Acu-Link.com,2013-03-02 23:32:00,
2013-03-02 18:47:00,52.3,38.4,29.83,East,90,5.8,-999.0,59,-99.99,,,0.00,Acu-Link.com,2013-03-02 23:47:00,
2013-03-02 19:02:00,51.8,38.4,29.82,SSW,202,2.7,-999.0,60,-99.99,,,0.00,Acu-Link.com,2013-03-03 00:02:00,
2013-03-02 19:18:00,51.3,38.7,29.82,East,90,3.2,-999.0,62,-99.99,,,0.00,Acu-Link.com,2013-03-03 00:18:00,
2013-03-02 19:33:00,51.1,38.9,29.82,SSW,202,3.2,-999.0,63,-99.99,,,0.00,Acu-Link.com,2013-03-03 00:33:00,
2013-03-02 19:48:00,50.7,38.6,29.83,SSW,202,4.2,-999.0,63,-99.99,,,0.00,Acu-Link.com,2013-03-03 00:48:00,
2013-03-02 20:03:00,50.7,38.6,29.83,SSW,202,3.7,-999.0,63,-99.99,,,0.00,Acu-Link.com,2013-03-03 01:03:00,
2013-03-02 20:18:00,50.5,38.4,29.84,WNW,292,2.7,-999.0,63,-99.99,,,0.00,Acu-Link.com,2013-03-03 01:18:00,
2013-03-02 20:34:00,50.2,38.9,29.84,SW,225,2.7,-999.0,65,-99.99,,,0.00,Acu-Link.com,2013-03-03 01:34:00,
2013-03-02 20:49:00,49.6,38.3,29.84,SSW,202,1.7,-999.0,65,-99.99,,,0.00,Acu-Link.com,2013-03-03 01:49:00,
2013-03-02 21:04:00,49.3,38.0,29.84,WNW,292,0.0,-999.0,65,-99.99,,,0.00,Acu-Link.com,2013-03-03 02:04:00,
2013-03-02 21:20:00,48.7,38.2,29.84,South,180,0.0,-999.0,67,-99.99,,,0.00,Acu-Link.com,2013-03-03 02:20:00,
2013-03-02 21:35:00,48.7,38.2,29.84,SE,135,1.7,-999.0,67,-99.99,,,0.00,Acu-Link.com,2013-03-03 02:35:00,
2013-03-02 21:50:00,48.6,38.5,29.84,North,0,1.1,-999.0,68,-99.99,,,0.00,Acu-Link.com,2013-03-03 02:50:00,
2013-03-02 22:06:00,48.6,38.5,29.84,West,270,0.0,-999.0,68,-99.99,,,0.00,Acu-Link.com,2013-03-03 03:06:00,
2013-03-02 22:21:00,48.0,38.0,29.84,WSW,247,0.0,-999.0,68,-99.99,,,0.00,Acu-Link.com,2013-03-03 03:21:00,
2013-03-02 22:36:00,47.7,37.7,29.84,West,270,0.0,-999.0,68,-99.99,,,0.00,Acu-Link.com,2013-03-03 03:36:00,
2013-03-02 22:51:00,47.1,37.1,29.84,West,270,0.0,-999.0,68,-99.99,,,0.00,Acu-Link.com,2013-03-03 03:51:00,
2013-03-02 23:07:00,47.5,37.8,29.85,West,270,2.2,-999.0,69,-99.99,,,0.00,Acu-Link.com,2013-03-03 04:07:00,
2013-03-02 23:22:00,48.0,38.3,29.85,West,270,2.2,-999.0,69,-99.99,,,0.00,Acu-Link.com,2013-03-03 04:22:00,
2013-03-02 23:37:00,48.2,38.9,29.85,WSW,247,2.7,-999.0,70,-99.99,,,0.00,Acu-Link.com,2013-03-03 04:37:00,
2013-03-02 23:53:00,47.8,38.1,29.84,WSW,247,1.1,-999.0,69,-99.99,,,0.00,Acu-Link.com,2013-03-03 04:53:00,